Skip to content

Quick Results for ''

Court Administration: Courtroom Information

Click on a filename to download it. Click on a folder to open it.

Location: Home / Administrative Orders

  Name Date Size
 
1990_1 Custody and Disposition of Court Exhibits.pdf 01-15-2013 03:01PM 104KB
 
1991_2 Weekend and Holiday Bonding Court.pdf 01-15-2013 03:01PM 269KB
 
2000_1 Peoria County Law Library.pdf 01-15-2013 03:01PM 109KB
 
2002_9 Cell Phone Possession in the Courthouse.pdf 01-15-2013 03:01PM 66.8KB
 
2003_1 Peoria County Circuit Clerk's Authorization for Traffic Supervision Orders.pdf 01-15-2013 03:01PM 41.9KB
 
2003_2 Peoria County Video Bonding Court.pdf 01-15-2013 03:01PM 78.5KB
 
2003_4 Uniform Petitions and Orders of Protection.pdf 01-15-2013 02:01PM 1.16MB
 
2003_6 Court Filings by Susan V. Reynolds.pdf 01-15-2013 02:01PM 210KB
 
2004_3 Security Policies for Peoria County Courthouse.pdf 01-15-2013 02:01PM 47.9KB
 
2005_2 Peoria County Juvenile Detention Alternatives Initiative.pdf 01-15-2013 02:01PM 86.1KB
 
2006_3 Protocol of the Family Violence Coordinating Council.pdf 01-15-2013 02:01PM 1.91MB
 
2006_4 Electronic Recording in lieu of Reporter in Court.pdf 01-15-2013 02:01PM 318KB
 
2006_9 Electronic Recording in Criminal Courts.pdf 01-15-2013 02:01PM 16.5KB
 
2006_13 Domestic Relations Courts Presiding Judge.pdf 01-15-2013 02:01PM 16.0KB
 
2007_2 Wearing Head Coverings in the Courtroom.pdf 01-15-2013 02:01PM 19.0KB
 
2008_1 Children First Parenting Educaiton Program.pdf 01-15-2013 02:01PM 15.1KB
 
2009_2 Domestic Vilence Surveillance Program.pdf 01-15-2013 02:01PM 28.4KB
 
2009_3 Divisions of Peoria County Courts.pdf 01-15-2013 02:01PM 19.8KB
 
2009_6 Directives to Judge for Cases taken under Advisement.pdf 01-15-2013 02:01PM 17.1KB
 
2010_2 Peoria County Mental Health Treatment court.pdf 01-15-2013 02:01PM 202KB
 
2011_1 Courtroom 423 Scheduling of Child Guardianship Cases.pdf 01-15-2013 02:01PM 9.88KB
 
2011_2 Failure to Appear Fee.pdf 01-15-2013 02:01PM 19.4KB
 
2011_4 Peoria County Mandatory Residential Foreclosure Mediation Program.pdf 01-15-2013 02:01PM 443KB
 
2011_5 Scheduling and Assignment of Child Custody(may be superseded by 10th Cir. R.45).pdf 01-15-2013 02:01PM 6.11KB
 
2011_8 Courtroom 210 Assignments of Cases with Attorney Milot.pdf 01-15-2013 02:01PM 14.1KB
 
2012_2 Identity Protection Policy.pdf 01-15-2013 02:01PM 34.4KB
 
2012_3 Marriage and Civil Union Fund.pdf 01-15-2013 02:01PM 173KB
 
2012_5 Authorization to Approve Administrative Subpoenas.pdf 01-15-2013 02:01PM 18.5KB
 
2012_6 Court filings by Renee Tomblin.pdf 01-15-2013 02:01PM 96.9KB
 
2012_8 Operations Fee for Probation.pdf 01-15-2013 02:01PM 20.7KB
 
2012_9 Probation Service Fees.pdf 01-15-2013 02:01PM 48.6KB
 
2012_10 Veterans Treatment Court.pdf 01-15-2013 02:01PM 21.5KB
 
2012_11 Drug Treatment Court.pdf 01-15-2013 02:01PM 684KB
 
2013_2 Reimbursement Vouchers of Probation Officers.pdf 01-15-2013 02:01PM 38.9KB
 
2013_5 Circuit Policy on Access for Persons with Disabilities.pdf 02-01-2013 01:02PM 113KB
 
2013_8 Foreclosure Act.pdf 05-03-2013 08:05AM 25.7KB
 
2013_9 Attorney General - Access to Juvenile Court Records.pdf 06-18-2013 09:06AM 21.1KB
 
2013_13 Case Assignments following change in assignments.pdf 09-03-2013 02:09PM 13.3KB
 
2013_14 Courtroom 322 assignments of Cordis Law Office.pdf 12-16-2013 09:12PM 11.9KB
 
2013_15 Courtroom and Judicial Assignments for 2014.pdf 03-14-2014 08:03PM 84.8KB
 
2014_2 Parental Notice of Abortion Act.pdf 07-16-2014 08:07PM 14.3KB
 
2014_3 Case Assignments with change in judicial assignments.pdf 07-16-2014 08:07PM 35.8KB
 
2014_4 Judicial Assignment of Michael P. McCuskey.pdf 06-26-2014 04:06PM 10.3KB
 
2014_5 Reassignment for suSubstitution.pdf 07-16-2014 08:07PM 55.4KB
 
2014_6.Appointment of Public Defender.pdf 07-16-2014 08:07PM 24.4KB
 
Table of Contents - Complete List.pdf 08-31-2011 11:08AM 88.2KB
 
Table of Contents.pdf 07-16-2014 08:07PM 10.9KB
 
Tazewell 2004_02 Petitions for Orders of Protection.pdf 01-15-2013 03:01PM 23.0KB
 
Tazewell 2006_1 Divisions of Tazewell County Courts.pdf 01-15-2013 03:01PM 88.4KB
 
Tazewell 2009_3 Authorization of Clerk to Apply Bail Rufunds.pdf 01-15-2013 03:01PM 28.6KB
 
Tazewell 2011_3 Attoreny_Expert Witness Fee Limits SVP Proceedings.pdf 01-15-2013 03:01PM 54.6KB
 
Tazewell 2013_2 Mailing of Notices for Mortgage Foreclosure Cases.pdf 07-01-2013 02:07PM 457KB

Local Weather

Temp
Rel Hum
Condition
Wind
61602